Location: Briis
(48.6240°N, 2.1211°E)
Time: 15:57:52
(UTC+00:00)

Meteor 1-11 Rocket - Pass Details

Date: 25 September 2020
Orbit: 830 x 916 km, 81.2° (Epoch: 22 October)

Event Time Altitude Azimuth Distance (km) Brightness Sun altitude
Rises 02:52:37 0° 350° (N) 3,501 7.2 -27.4°
Reaches altitude 10° 02:55:10 10° 355° (N) 2,545 6.5 -27.1°
Maximum altitude 03:00:50 56° 74° (ENE) 1,025 4.3 -26.3°
Drops below altitude 10° 03:06:20 10° 152° (SSE) 2,471 6.1 -25.5°
Sets 03:08:46 0° 157° (SSE) 3,392 6.8 -25.2°
